Simultaneous Nadir Overpasses (SNOs) Predictions

Prediction of SNOs between GOES-17 and NPP Satellite Orbit:

Table of predicted SNOs for the next 14.0 days since TLE Epoch: 7/9/2022
Index Date Time (GOES-17) GOES-17 Lat,Lon NPP Lat,Lon Distance(km) Time Diff (sec)
1 07/10/2022 22:36:59 -0.03,-137.26 -0.08,-137.56 34.37 80
2 07/11/2022 22:15:35 -0.02,-137.26 0.94,-133.04 482.03 80
3 07/13/2022 10:40:04 0.02,-137.28 0.23,-138.31 117.53 80
4 07/14/2022 10:18:41 0.02,-137.28 -0.79,-133.79 398.47 80
5 07/15/2022 22:43:18 -0.02,-137.27 -0.43,-139.09 207.58 80
6 07/16/2022 22:21:55 -0.02,-137.27 0.59,-134.57 308.57 80
7 07/18/2022 10:46:24 0.03,-137.28 0.58,-139.84 291.04 80
8 07/19/2022 10:25:00 0.03,-137.28 -0.39,-135.30 224.92 80
9 07/20/2022 22:49:38 -0.03,-137.27 -0.77,-140.62 381.73 80
10 07/21/2022 22:28:14 -0.02,-137.26 0.26,-136.09 133.84 80
